Wetbulb
44.87 44.86 45.05 45.44 45.68 45.89 46.09 46.07 45.65 45.53 45.43 45.49 45.20 43.32 43.71 43.70 42.45 34.82 31.37 32.81 28.03 25.10 25.67 26.01 30.37 22.88 27.28 13.74 4.92 11.79 10.54 11.47 14.75 11.42 10.00 7.98 9.27 18.80 21.31 17.18 15.57 11.94 8.28 13.15 13.46 21.87 18.23 16.08 19.17 14.07 15.23 17.93 17.81 19.15
44.55 44.67 44.73 45.02 45.27 45.48 45.82 46.04 45.77 45.06 45.31 45.20 45.20 43.18 43.31 43.39 42.65 36.86 29.56 32.05 34.06 30.15 24.51 28.57 32.50 34.53 31.09 25.46 16.73 7.79 6.31 1.94 16.93 10.90 7.47 9.00 12.53 10.89 14.88 13.83 16.20 11.69 8.96 9.00 11.49 14.76 16.21 17.24 17.91 18.48 18.17 15.35 16.18 16.78
44.40 44.49 44.55 44.73 44.97 45.05 45.31 45.67 45.67 45.38 45.09 44.92 45.12 42.95 42.97 43.07 41.60 35.89 29.24 29.18 27.38 20.09 20.22 23.15 30.35 29.88 29.20 27.37 26.87 8.42 8.23 12.48 21.11 18.98 16.06 15.36 10.15 15.68 4.01 4.11 7.79 9.58 9.26 9.17 6.67 13.39 11.74 13.16 17.99 16.05 15.84 14.16 15.76 17.69
44.25 44.47 44.64 44.52 44.74 44.69 44.82 45.10 45.47 45.19 45.09 45.09 45.02 42.49 42.58 41.96 40.60 36.14 30.06 29.99 27.52 22.11 10.21 17.22 27.76 26.31 27.24 22.45 22.06 23.27 18.26 22.22 20.20 20.75 16.06 13.65 11.01 15.54 6.92 6.47 5.85 6.35 6.56 4.64 6.04 9.42 9.30 16.96 14.47 13.72 13.12 14.39 15.31 18.10
44.42 44.51 44.78 44.62 44.61 44.54 44.55 44.69 44.96 45.26 44.84 44.75 44.47 41.59 42.13 41.00 39.18 33.49 33.99 31.66 30.07 22.46 11.80 15.01 22.58 26.30 21.26 18.50 20.08 22.55 21.26 18.38 18.28 16.08 15.57 10.28 12.09 10.89 2.38 1.25 -6.33 -0.44 1.42 2.97 4.40 9.09 7.01 8.65 12.13 12.72 10.88 12.73 13.39 14.24
44.66 44.58 44.68 44.78 44.69 44.69 44.51 44.49 44.52 44.75 44.90 44.71 44.24 40.63 41.24 41.34 39.13 31.82 22.27 33.67 30.60 29.46 16.64 8.91 19.48 12.08 17.14 17.25 18.27 19.24 21.78 22.91 22.48 16.20 8.93 8.78 8.45 10.14 0.19 -5.85 -2.38 -1.58 1.29 4.33 5.69 10.34 9.23 9.83 11.69 12.41 11.04 11.52 13.53 15.73
44.70 44.65 44.56 44.71 44.64 44.76 44.68 44.64 44.49 44.35 44.39 44.53 43.90 39.70 38.88 38.23 30.61 26.50 24.82 28.15 32.47 30.18 11.69 6.47 9.33 15.88 16.32 17.13 15.67 16.06 19.19 18.58 19.33 13.22 7.28 2.26 2.67 0.10 -10.75 -5.35 1.14 2.10 1.98 1.33 2.55 2.57 4.56 6.67 7.08 9.72 9.78 11.37 14.42 15.63
44.89 44.70 44.41 44.35 44.66 44.68 44.73 44.68 44.58 44.22 43.96 44.29 41.80 39.40 39.69 38.48 34.71 27.39 29.22 29.64 25.79 18.50 13.22 0.16 7.26 11.93 16.05 9.21 8.15 15.02 13.28 14.03 17.77 10.05 11.29 8.66 6.76 -1.50 -4.78 -1.24 -3.24 -3.01 -0.41 0.14 -0.91 2.64 4.95 6.36 6.69 7.73 10.23 9.76 10.30 12.54
45.02 44.73 44.68 44.59 44.48 44.61 44.77 44.73 44.53 44.17 43.86 43.42 37.18 37.25 30.05 26.12 21.76 24.85 33.55 28.75 23.80 20.33 7.96 6.26 5.76 6.02 13.85 9.21 10.74 11.30 12.25 7.27 18.28 6.15 10.36 10.21 3.10 -1.18 4.07 -0.88 -3.84 -2.87 -1.68 2.24 3.99 3.08 1.06 -0.41 3.91 6.56 7.47 7.59 8.42 10.36
45.04 44.95 44.84 44.82 44.78 44.53 44.63 44.68 44.48 44.07 43.60 35.92 28.45 24.27 16.39 20.82 31.77 28.34 21.36 13.98 11.44 8.73 10.11 8.87 9.44 5.17 8.91 7.23 4.51 8.20 7.92 7.67 1.88 11.74 11.28 0.99 4.07 4.40 1.05 0.44 -1.52 -2.21 -1.32 -0.26 -1.90 -0.37 2.67 2.48 3.60 4.35 5.17 8.00 9.66 11.22
45.21 45.49 45.09 44.94 45.51 44.89 44.63 44.58 44.36 43.20 38.00 28.85 25.22 18.83 24.57 28.65 22.90 15.96 12.16 12.27 7.34 6.88 12.63 9.20 7.13 4.34 10.34 2.51 3.07 10.19 -0.88 5.51 -3.99 7.04 4.38 0.86 2.44 -0.36 -6.97 -7.35 -5.00 -6.51 -5.44 -2.14 0.38 1.97 2.15 2.92 3.20 4.63 5.92 7.46 10.20 11.90
45.52 45.59 45.61 45.70 45.70 45.16 44.96 44.66 44.25 37.32 33.68 31.85 30.33 26.60 22.79 17.55 11.85 12.06 8.81 9.81 9.85 10.37 9.95 7.12 6.01 6.04 4.50 9.64 4.32 5.08 0.32 2.58 -2.40 2.49 -5.30 -2.69 0.75 -2.57 -7.26 -6.84 -5.93 -8.87 -9.34 -3.30 -4.92 -1.28 0.25 2.61 4.48 5.96 6.79 8.18 9.95 12.74
45.52 45.58 45.72 45.68 45.47 45.34 45.25 44.92 44.42 40.22 32.90 27.00 19.45 13.44 12.86 12.64 11.55 10.34 13.47 13.24 11.86 11.70 8.05 6.32 4.56 3.11 2.16 2.14 -3.67 -0.65 -5.07 -1.06 6.71 -6.52 -0.02 1.11 -2.45 -4.43 -7.68 -12.93 -7.59 -7.23 -10.12 -6.82 -3.56 -3.24 -2.20 -0.43 2.90 3.29 6.24 9.01 11.17 13.13
45.61 45.61 45.65 45.84 45.93 45.46 45.49 45.32 43.49 35.63 29.87 22.28 17.18 13.47 15.17 11.13 11.46 14.89 16.03 18.97 15.31 12.94 9.85 8.44 3.95 5.30 0.11 -1.07 -7.66 -5.38 -0.56 0.34 -10.55 -10.66 -0.89 0.25 -0.52 -1.39 -8.70 -12.35 -11.02 -7.38 -7.76 -6.27 -2.81 -3.12 -1.69 -0.00 1.97 7.62 8.95 10.21 11.83 13.10
45.54 45.49 45.56 45.38 45.73 45.89 45.94 45.70 41.13 32.31 27.33 24.12 15.17 11.58 8.94 15.55 13.65 14.58 13.37 13.25 12.12 11.70 9.06 5.82 3.08 3.54 -0.49 -2.95 -6.79 -2.57 -5.49 -6.06 -2.81 1.02 2.61 0.97 1.06 -1.15 -7.31 -8.68 -6.58 -8.48 -8.94 -9.45 -9.05 -5.00 -2.52 -0.29 0.80 5.77 9.61 10.88 12.24 13.31
45.61 45.27 43.57 45.44 45.73 45.86 45.87 43.49 30.32 28.27 23.44 21.48 15.89 10.73 13.87 11.33 12.99 11.26 12.33 13.04 11.68 10.19 10.58 10.48 2.43 -3.67 -2.54 -3.31 -7.50 -3.93 -5.80 -1.82 5.34 2.76 4.46 0.34 -0.34 -2.09 -2.16 -1.77 -2.56 -7.65 -8.58 -6.96 -9.03 -4.57 -1.31 -1.47 4.68 6.96 10.45 11.06 11.88 12.17
45.58 39.79 44.16 45.68 46.19 45.98 44.72 30.03 28.42 27.38 25.33 18.69 14.26 15.26 14.98 14.13 16.90 15.05 15.18 13.03 12.70 13.78 10.84 8.27 3.91 5.51 -3.89 -7.28 -9.86 -1.05 0.50 7.53 6.28 2.90 2.97 3.02 1.77 -0.89 -1.69 0.60 2.81 1.15 -3.46 -6.84 -9.10 -6.65 -3.68 -0.02 5.77 5.80 8.63 10.73 12.00 12.03
42.23 43.04 45.23 45.75 43.48 35.77 28.68 29.57 28.98 24.08 19.55 17.30 14.68 14.56 14.14 13.84 13.71 13.20 10.55 11.88 12.69 13.61 10.89 9.43 4.16 -1.81 0.39 -0.61 2.07 7.89 6.93 4.61 1.59 2.81 4.32 2.87 -3.62 -2.27 2.62 1.38 3.44 1.17 -1.29 -5.11 -7.38 -6.20 -5.11 -2.76 4.11 8.30 10.28 11.86 12.38 12.04
43.67 43.30 44.93 45.29 39.53 31.39 26.91 25.24 24.93 20.38 20.29 11.71 11.45 12.12 12.85 12.09 10.56 13.23 11.87 12.88 11.46 12.89 8.43 6.18 5.61 -0.27 4.17 8.26 10.38 11.16 7.03 5.30 3.05 1.04 -1.40 -7.93 -5.11 -1.79 0.42 1.16 0.99 -0.62 -1.63 -4.46 -3.59 -0.08 0.58 -0.00 5.58 8.54 11.19 12.06 11.18 12.46
44.15 44.24 44.33 43.99 38.17 29.52 24.50 19.50 17.46 19.05 15.73 14.13 11.96 10.68 11.14 9.60 9.03 9.57 8.91 9.10 9.97 10.61 7.17 4.65 5.91 9.91 10.79 12.52 12.35 11.66 9.37 5.53 2.31 1.38 1.50 0.11 -4.77 -9.46 -2.61 -0.94 1.68 0.78 -1.11 -3.29 -2.25 8.08 0.62 3.35 8.18 8.07 11.34 11.84 10.16 10.04
40.07 35.78 37.40 38.22 29.51 27.53 25.31 16.11 15.40 16.88 12.88 11.47 8.98 9.39 5.27 5.78 4.94 5.70 6.01 9.48 8.11 7.68 6.99 10.84 11.91 11.24 10.35 7.56 7.79 8.49 6.40 5.35 4.84 6.36 4.13 0.90 -1.43 0.13 -4.08 -2.32 -2.27 -0.38 -1.12 0.27 -1.02 0.78 9.99 2.92 7.14 8.87 9.58 10.37 10.65 11.33
32.72 35.05 29.41 30.62 23.84 20.10 16.32 12.81 15.87 13.28 11.23 7.92 6.61 6.75 3.27 2.36 3.44 5.23 7.18 5.50 5.94 9.33 10.76 11.99 11.27 11.26 8.10 5.53 6.12 7.00 5.74 3.99 2.35 7.15 8.65 9.70 -1.20 0.75 -1.61 -0.96 -0.33 -3.45 -3.16 -2.45 -1.61 0.52 3.49 5.49 8.42 7.14 8.68 8.93 10.98 10.79
33.16 30.72 26.64 25.41 21.44 19.79 11.57 11.63 12.60 9.07 8.91 6.31 4.75 5.33 5.75 4.13 2.41 5.58 3.07 6.49 8.07 9.62 9.70 8.07 5.03 4.20 5.49 3.07 2.60 2.00 3.44 3.35 3.36 4.36 6.83 2.25 1.32 1.38 -1.09 -4.06 -5.49 -8.05 -6.36 -3.57 -1.43 2.70 4.48 9.67 10.27 6.75 7.43 8.97 9.52 9.14
32.60 26.60 22.72 18.34 17.70 8.32 6.15 3.15 7.22 6.32 4.74 4.04 4.42 5.96 6.63 2.24 0.80 -0.04 -0.03 4.97 7.30 7.03 5.69 0.57 -0.66 -2.00 0.22 2.35 3.06 2.69 1.54 3.30 1.58 0.25 -0.38 -0.12 0.62 -3.68 -6.71 -6.43 -10.81 -10.97 -7.18 -4.03 -0.66 4.15 5.09 4.80 8.62 4.77 5.48 5.54 6.58 7.37
20.33 16.54 19.96 9.88 7.28 6.40 1.44 -2.66 -1.66 1.64 5.09 5.63 4.60 6.13 1.30 0.22 0.02 0.46 0.71 3.41 4.00 3.18 1.40 -2.09 -2.40 -1.93 -0.82 2.70 2.86 1.45 -0.47 1.91 1.44 0.36 -2.32 -3.27 -4.83 -3.49 -1.82 -4.94 -12.65 -11.17 -6.38 -5.19 0.24 2.94 1.74 2.02 2.38 2.27 2.26 3.03 3.09 3.08
8.57 10.34 11.40 9.73 2.42 2.52 5.58 0.19 -0.53 1.80 5.44 3.28 2.93 1.08 1.39 1.03 0.16 2.31 2.35 -2.09 -2.55 -3.99 -4.57 -4.35 -2.64 0.21 2.39 3.26 1.33 0.01 -0.64 -1.90 0.18 -0.30 -2.85 -2.40 -3.88 -6.58 -11.89 -10.79 -10.10 -5.48 -6.89 -5.34 -0.91 0.31 1.80 2.77 2.04 -0.36 -0.00 1.28 8.01 3.60
5.83 4.56 7.48 12.32 10.40 9.08 7.02 7.20 7.17 4.66 2.27 1.46 1.13 -1.32 0.21 0.07 2.16 3.25 3.19 1.37 -0.15 0.96 0.21 1.65 1.44 1.26 0.44 0.51 0.90 0.20 -1.25 -1.19 -4.46 -4.71 -7.56 -7.45 -9.23 -13.62 -10.75 -11.86 -11.55 -3.72 -6.79 -6.62 -2.24 1.57 2.06 2.91 2.81 3.04 1.98 2.54 1.31 1.45
2.23 4.47 0.55 3.39 7.28 9.66 8.31 6.87 6.22 5.38 7.02 5.73 3.89 -1.92 0.78 1.61 3.65 2.65 2.50 1.90 -0.42 -1.03 -3.59 -3.39 -1.48 -0.03 1.23 -0.10 -1.91 -3.04 -5.40 -7.18 -9.07 -12.51 -10.53 -10.41 -17.02 -17.86 -17.91 -16.41 -12.47 8.67 -6.08 0.59 -0.55 0.10 2.48 2.35 3.06 2.09 2.76 1.94 1.94 2.78
3.27 6.45 6.23 1.07 3.31 3.15 -0.80 0.07 1.55 2.18 2.79 3.35 4.10 5.36 3.99 3.22 2.45 1.69 3.22 2.54 1.30 0.53 -1.26 -1.45 -2.01 -2.39 -3.94 -5.15 -6.45 -8.01 -6.92 -5.69 -7.27 -12.55 -14.69 -14.26 -13.43 -8.22 -16.97 -17.21 -14.20 -7.13 1.60 3.47 11.37 7.40 2.48 1.54 0.12 0.56 2.24 2.02 0.71 -7.13
0.97 4.84 2.51 -3.64 -3.95 -2.64 -4.58 -1.80 -1.38 1.50 3.90 4.19 4.25 5.16 5.08 3.82 3.28 4.95 4.24 3.77 3.13 1.87 0.57 0.42 -1.14 -1.47 -2.92 -2.88 -8.34 -8.47 -12.18 -17.89 -18.48 -12.23 -15.70 -15.27 -11.84 -16.28 -22.39 -18.60 -12.80 -7.25 -1.12 0.37 -0.52 0.44 9.13 4.02 4.23 -0.87 -0.73 -1.30 -4.35 -7.17
3.81 1.50 -2.79 -3.32 -4.64 -3.20 -2.35 -0.62 0.12 2.53 3.46 2.39 3.51 1.93 2.09 2.69 3.90 3.45 2.41 1.73 1.24 0.97 0.54 -0.58 -1.76 -6.27 -8.39 -12.77 -14.00 -14.61 -11.45 -13.62 -18.30 -19.01 -19.65 -19.13 -21.57 -21.36 -20.54 -18.56 -14.85 -11.86 -8.45 -5.28 -5.03 -2.23 -1.09 -0.10 -1.91 -5.11 -6.98 -8.58 -9.00 -6.44
0.03 -6.91 -4.91 -6.18 -4.50 -1.73 0.15 -0.64 0.04 0.14 0.96 0.49 -0.73 0.33 1.25 2.58 2.12 1.51 -0.04 0.32 0.93 1.20 1.94 -5.90 -10.27 -9.37 -15.05 -19.77 -21.94 -21.26 0.92 -17.20 -20.76 -16.18 -15.09 -15.61 -17.89 -17.50 -17.66 -18.37 -20.58 -18.13 -15.36 -13.00 -12.51 -11.60 -10.28 -11.88 -13.00 -11.46 -10.44 -10.37 -11.11 -13.69
-10.48 -10.44 -9.29 -5.57 -5.32 -3.83 -1.37 -2.14 -1.60 -2.38 -1.65 -2.66 -3.65 -4.46 -3.96 -5.00 -4.19 -4.28 -8.53 -13.16 -13.36 -14.01 -13.67 -15.57 -17.05 -18.80 -19.51 -20.53 -19.09 -18.64 -4.26 -17.82 -16.19 2.93 4.07 5.50 5.45 -1.69 -13.60 -15.81 -16.83 -15.58 -14.22 -13.74 -15.61 -13.80 -10.46 -9.55 -9.84 -12.06 -10.95 -9.94 -10.21 -10.93
MSLP
1031.28 1030.92 1030.64 1030.41 1029.94 1029.41 1029.04 1028.51 1028.05 1027.53 1026.83 1026.19 1025.61 1025.21 1024.84 1024.47 1024.22 1024.64 1025.36 1025.20 1025.28 1025.71 1025.61 1025.31 1024.96 1025.04 1025.22 1026.18 1027.14 1026.31 1025.55 1024.90 1023.96 1024.15 1024.69 1023.95 1023.02 1021.87 1021.59 1022.56 1022.65 1022.99 1023.29 1022.02 1021.23 1020.17 1021.23 1021.68 1019.81 1021.27 1024.04 1023.16 1023.19 1022.36
1030.93 1030.75 1030.46 1030.19 1029.86 1029.37 1029.01 1028.56 1028.13 1027.58 1027.04 1026.29 1025.64 1025.15 1024.71 1024.45 1024.42 1024.64 1025.32 1025.38 1025.17 1025.42 1025.52 1025.17 1024.82 1024.76 1025.01 1025.50 1026.32 1027.09 1027.80 1027.07 1025.95 1025.76 1025.88 1025.58 1024.88 1024.09 1024.10 1024.80 1025.06 1026.06 1026.67 1026.18 1025.33 1023.93 1024.07 1024.43 1024.71 1025.22 1025.17 1024.69 1023.81 1023.28
1030.60 1030.55 1030.27 1029.96 1029.73 1029.26 1028.86 1028.50 1028.05 1027.58 1027.02 1026.42 1025.79 1025.31 1024.77 1024.47 1024.52 1024.70 1025.48 1025.76 1025.72 1026.13 1025.82 1025.47 1024.90 1025.23 1025.05 1025.27 1025.58 1026.79 1026.90 1026.52 1026.11 1025.87 1026.08 1026.10 1026.32 1026.18 1026.72 1027.58 1027.83 1028.41 1028.44 1027.94 1027.23 1025.84 1025.59 1024.98 1025.32 1025.69 1025.76 1025.39 1024.38 1023.68
1030.00 1030.02 1029.99 1029.57 1029.41 1028.91 1028.56 1028.20 1027.84 1027.49 1026.92 1026.38 1025.83 1025.41 1024.85 1024.45 1024.45 1024.74 1025.62 1025.94 1026.06 1026.51 1026.66 1026.03 1025.12 1025.13 1025.14 1025.26 1025.19 1025.42 1025.83 1025.83 1025.95 1026.05 1026.28 1026.87 1027.65 1027.95 1028.97 1029.59 1030.12 1030.81 1030.58 1030.15 1028.58 1027.31 1026.28 1025.72 1025.61 1026.18 1025.58 1025.20 1024.46 1023.09
1029.39 1029.28 1029.31 1029.06 1028.99 1028.66 1028.31 1027.99 1027.55 1027.30 1026.76 1026.16 1025.73 1025.40 1025.04 1024.75 1024.84 1025.20 1025.30 1025.68 1025.75 1026.28 1026.85 1026.55 1026.05 1025.72 1025.58 1025.56 1025.32 1025.17 1025.57 1025.97 1026.04 1026.25 1026.96 1028.17 1028.79 1029.59 1030.80 1031.65 1032.41 1032.33 1032.20 1031.88 1030.44 1029.61 1029.97 1028.32 1027.24 1026.90 1026.26 1025.20 1024.39 1023.27
1028.65 1028.55 1028.78 1028.71 1028.46 1028.39 1027.97 1027.62 1027.26 1026.87 1026.43 1025.89 1025.52 1025.28 1024.93 1024.80 1024.85 1025.30 1025.92 1025.58 1025.49 1025.64 1026.43 1027.07 1026.78 1026.52 1026.09 1026.00 1025.82 1025.63 1025.57 1025.80 1025.92 1026.68 1028.07 1029.04 1029.80 1030.46 1032.12 1033.44 1033.03 1032.76 1032.90 1032.63 1031.62 1030.59 1030.21 1029.09 1028.15 1027.50 1026.78 1025.50 1024.23 1023.06
1028.19 1027.89 1027.99 1028.20 1027.77 1027.77 1027.59 1027.31 1026.87 1026.40 1026.05 1025.63 1025.11 1024.98 1024.88 1025.03 1025.27 1025.46 1025.81 1025.73 1025.33 1025.55 1026.84 1027.63 1027.36 1027.10 1027.00 1026.71 1026.63 1026.45 1026.19 1026.34 1026.50 1027.39 1028.70 1029.86 1030.47 1031.41 1033.07 1033.63 1033.09 1033.11 1032.87 1032.48 1032.13 1031.84 1030.39 1029.36 1028.74 1027.89 1026.97 1025.56 1024.40 1022.72
1027.53 1027.48 1027.27 1027.26 1027.32 1027.01 1026.97 1026.73 1026.47 1026.02 1025.47 1025.22 1024.97 1024.85 1024.91 1024.89 1025.23 1025.51 1025.75 1025.59 1025.67 1026.52 1027.43 1028.49 1028.20 1027.76 1027.85 1028.05 1028.17 1027.68 1027.45 1027.30 1027.26 1028.07 1029.09 1029.99 1031.04 1032.10 1033.15 1032.76 1032.96 1033.25 1032.91 1032.35 1032.06 1031.99 1031.22 1029.84 1029.00 1027.83 1026.60 1025.62 1024.10 1022.42
1026.77 1026.79 1026.68 1026.72 1026.54 1026.41 1026.38 1026.26 1025.95 1025.66 1025.18 1024.87 1024.91 1024.88 1025.40 1025.46 1025.71 1025.94 1025.67 1025.90 1026.16 1026.85 1027.90 1029.20 1029.39 1029.19 1028.88 1029.31 1029.32 1028.86 1028.57 1028.46 1027.98 1028.78 1029.45 1030.23 1031.43 1031.72 1031.55 1032.48 1032.89 1033.19 1033.15 1032.68 1032.06 1031.37 1030.54 1029.80 1028.38 1027.21 1026.24 1024.91 1023.71 1022.27
1025.97 1025.97 1025.94 1026.04 1025.95 1025.69 1025.60 1025.55 1025.33 1025.17 1025.05 1024.92 1025.02 1025.59 1025.77 1026.05 1025.78 1025.86 1025.59 1026.26 1026.54 1028.19 1028.38 1029.33 1030.02 1030.02 1030.06 1030.26 1030.19 1030.15 1029.94 1029.53 1029.27 1029.56 1029.76 1030.62 1030.80 1030.60 1031.16 1031.78 1032.21 1032.47 1032.57 1032.46 1032.00 1030.86 1030.22 1029.46 1028.57 1027.23 1026.14 1025.04 1023.92 1022.72
1025.21 1025.33 1025.19 1025.09 1025.29 1025.19 1025.11 1025.14 1025.07 1025.01 1025.19 1025.43 1026.00 1026.41 1026.31 1025.95 1025.96 1026.25 1026.88 1027.26 1027.89 1028.66 1029.03 1029.99 1030.56 1030.85 1031.07 1031.32 1031.30 1031.03 1030.97 1030.66 1030.58 1030.35 1030.55 1031.26 1031.10 1030.86 1031.15 1031.88 1032.43 1032.20 1032.05 1031.87 1031.53 1030.86 1030.27 1029.60 1028.54 1027.27 1025.84 1024.63 1023.37 1022.15
1024.27 1024.42 1024.45 1024.50 1024.48 1024.49 1024.62 1024.66 1024.64 1025.14 1025.36 1025.67 1026.20 1026.50 1026.54 1026.45 1026.57 1026.92 1027.09 1028.12 1028.27 1028.47 1029.53 1030.37 1031.04 1031.49 1031.88 1031.89 1031.97 1031.80 1031.70 1031.47 1031.24 1031.08 1031.59 1031.28 1029.77 1030.38 1031.66 1032.18 1032.51 1032.24 1032.09 1031.67 1030.98 1030.42 1029.63 1028.88 1028.04 1027.07 1025.88 1024.54 1023.31 1022.07
1023.21 1023.33 1023.39 1023.53 1023.45 1023.52 1023.71 1023.97 1023.95 1024.51 1025.35 1026.19 1026.58 1026.85 1026.71 1026.96 1026.91 1026.43 1026.30 1026.89 1027.40 1027.69 1029.24 1030.39 1031.43 1031.90 1032.45 1032.85 1032.90 1032.59 1032.55 1032.10 1031.36 1031.70 1031.09 1029.81 1029.80 1030.46 1031.04 1031.79 1032.13 1031.85 1032.01 1031.62 1030.76 1029.91 1029.18 1028.30 1027.51 1026.75 1025.72 1024.48 1023.33 1022.28
1022.40 1022.17 1022.27 1022.45 1022.42 1022.51 1022.71 1022.91 1023.19 1024.53 1025.34 1026.68 1027.28 1027.38 1026.57 1026.11 1025.46 1024.22 1024.19 1024.42 1025.49 1026.52 1028.23 1029.50 1031.06 1032.16 1032.62 1033.10 1033.51 1033.24 1032.62 1032.20 1031.65 1031.31 1029.57 1028.65 1028.77 1029.67 1030.61 1031.66 1032.03 1031.63 1031.28 1031.47 1030.91 1029.88 1028.92 1028.09 1027.23 1026.42 1025.57 1024.59 1023.70 1022.82
1021.14 1021.16 1021.35 1021.32 1021.42 1021.55 1021.51 1021.81 1022.73 1023.70 1024.89 1026.16 1027.30 1026.74 1025.58 1023.70 1023.70 1023.87 1024.32 1025.00 1025.90 1026.76 1027.72 1029.52 1030.95 1031.72 1032.51 1033.02 1033.25 1032.86 1032.39 1031.33 1030.03 1028.04 1027.07 1026.89 1027.88 1029.12 1030.05 1030.64 1031.24 1031.66 1031.25 1030.68 1030.18 1029.91 1029.04 1028.10 1027.19 1026.33 1025.62 1024.82 1024.17 1023.52
1020.10 1020.27 1019.91 1019.78 1020.05 1020.09 1020.28 1020.68 1022.54 1023.39 1024.19 1024.95 1025.16 1024.56 1024.08 1024.35 1023.96 1024.36 1024.75 1025.20 1025.91 1026.84 1027.75 1028.63 1030.31 1031.39 1031.94 1032.14 1032.46 1031.08 1030.35 1028.16 1026.05 1025.70 1025.55 1026.32 1027.59 1028.32 1029.35 1029.86 1029.99 1030.20 1030.31 1030.33 1030.15 1029.53 1029.03 1028.17 1027.25 1026.44 1025.71 1025.19 1024.67 1024.27
1019.22 1018.66 1018.41 1018.55 1018.58 1018.81 1019.44 1021.16 1022.12 1022.37 1022.91 1023.44 1022.68 1022.10 1022.24 1022.10 1022.31 1022.61 1023.38 1024.50 1025.60 1026.14 1027.21 1028.34 1029.41 1029.23 1030.81 1030.71 1029.68 1028.32 1026.63 1024.47 1024.18 1024.68 1025.43 1026.04 1027.02 1027.59 1028.16 1029.10 1029.30 1029.37 1029.69 1029.77 1029.65 1029.39 1028.86 1027.78 1026.99 1026.52 1025.96 1025.59 1025.18 1024.90
1017.32 1017.34 1017.40 1017.39 1017.70 1018.46 1019.63 1020.31 1020.95 1021.38 1021.70 1021.67 1022.20 1021.52 1022.18 1022.27 1022.64 1023.11 1023.72 1024.28 1025.01 1025.53 1026.19 1026.67 1027.32 1028.09 1027.41 1026.44 1024.96 1023.07 1022.99 1023.45 1024.04 1024.46 1025.22 1025.98 1026.66 1027.39 1027.70 1028.12 1028.64 1028.72 1028.97 1029.20 1029.35 1029.07 1028.52 1028.07 1027.24 1026.60 1026.17 1025.76 1025.53 1025.37
1015.87 1015.96 1016.20 1016.23 1016.81 1017.93 1019.15 1020.03 1020.36 1020.69 1020.80 1021.48 1021.78 1021.88 1022.08 1022.72 1023.31 1023.44 1023.87 1024.41 1024.66 1024.83 1025.31 1026.12 1025.91 1024.92 1023.06 1021.57 1020.80 1021.19 1022.09 1022.93 1023.77 1024.56 1025.40 1026.00 1026.24 1026.83 1027.34 1027.95 1028.36 1028.52 1028.62 1028.83 1028.95 1028.59 1028.12 1027.58 1027.13 1026.54 1026.21 1025.95 1025.75 1025.64
1015.27 1015.23 1015.20 1015.40 1015.95 1017.30 1018.53 1019.80 1020.25 1020.01 1020.48 1020.73 1021.57 1022.07 1022.42 1022.95 1023.60 1024.03 1024.40 1024.67 1024.86 1024.98 1025.14 1024.33 1021.98 1020.07 1019.86 1019.69 1019.89 1020.28 1021.14 1022.18 1023.38 1024.72 1025.46 1025.92 1026.24 1026.85 1027.11 1027.56 1027.96 1028.04 1028.24 1028.26 1028.14 1027.64 1027.78 1027.41 1026.95 1026.57 1026.19 1026.06 1026.01 1025.97
1014.87 1014.98 1014.98 1014.89 1016.08 1016.93 1018.01 1019.50 1020.29 1020.51 1020.89 1021.30 1022.00 1022.32 1023.22 1023.72 1024.17 1024.51 1024.58 1024.71 1024.75 1023.55 1022.03 1020.09 1019.25 1019.37 1019.62 1020.15 1020.38 1020.77 1021.43 1022.08 1022.75 1023.32 1024.05 1025.20 1025.90 1026.50 1026.98 1027.38 1027.74 1027.91 1028.04 1028.05 1027.86 1027.56 1027.19 1027.27 1026.89 1026.69 1026.45 1026.31 1026.22 1026.15
1014.81 1014.97 1015.35 1015.73 1016.52 1017.78 1018.99 1020.32 1020.67 1021.16 1021.75 1022.29 1022.64 1022.87 1023.38 1023.83 1024.17 1024.34 1024.42 1024.56 1023.02 1020.51 1019.95 1019.49 1019.60 1019.73 1020.18 1020.69 1021.01 1021.30 1021.64 1022.21 1022.84 1023.38 1023.93 1024.51 1025.80 1026.45 1026.93 1027.15 1027.69 1027.92 1027.91 1027.80 1027.65 1027.43 1027.24 1027.00 1026.86 1026.74 1026.65 1026.56 1026.41 1026.42
1015.16 1015.50 1016.15 1016.28 1017.10 1018.37 1020.61 1021.21 1021.37 1021.80 1022.15 1022.43 1022.82 1022.82 1023.07 1023.60 1024.19 1024.46 1024.03 1022.58 1020.91 1020.26 1020.19 1020.41 1020.74 1020.92 1020.96 1021.38 1021.79 1022.20 1022.41 1022.66 1023.30 1023.82 1024.16 1024.87 1025.45 1026.02 1026.62 1027.20 1027.42 1027.97 1027.90 1027.70 1027.28 1027.13 1027.05 1026.85 1026.66 1026.87 1026.87 1026.81 1026.75 1026.74
1015.66 1016.38 1017.01 1017.18 1018.11 1020.15 1021.32 1021.81 1022.17 1022.56 1022.73 1022.76 1022.83 1022.73 1023.25 1024.06 1024.68 1024.56 1023.36 1021.49 1020.76 1020.79 1021.01 1021.37 1021.55 1021.78 1021.92 1022.03 1022.19 1022.52 1022.85 1023.05 1023.65 1024.37 1024.85 1025.25 1025.90 1026.53 1026.84 1027.21 1027.47 1027.59 1027.60 1027.45 1027.30 1027.16 1027.08 1027.02 1026.96 1027.10 1027.16 1027.14 1027.11 1027.13
1016.65 1017.70 1018.08 1018.85 1019.78 1020.81 1021.71 1022.33 1022.85 1022.82 1022.25 1022.15 1022.47 1022.65 1023.40 1024.08 1024.21 1023.68 1022.51 1021.57 1021.45 1021.69 1021.96 1022.13 1022.16 1022.23 1022.19 1022.26 1022.64 1023.17 1023.53 1023.63 1024.12 1024.73 1025.31 1025.55 1026.18 1026.81 1027.23 1027.50 1027.57 1027.59 1027.30 1027.51 1027.40 1027.23 1027.23 1027.25 1027.30 1027.38 1027.42 1027.41 1027.41 1027.49
1017.75 1018.62 1019.27 1019.30 1020.28 1020.78 1021.46 1022.40 1022.55 1022.28 1022.18 1022.20 1022.37 1022.80 1023.29 1023.55 1023.47 1022.30 1022.07 1022.35 1022.62 1022.79 1022.79 1022.86 1022.73 1022.64 1022.48 1022.46 1022.88 1023.43 1023.77 1024.21 1024.57 1025.03 1025.51 1025.72 1026.16 1026.87 1027.40 1027.76 1027.67 1027.34 1027.01 1027.05 1027.22 1027.19 1027.27 1027.35 1027.44 1027.55 1027.60 1027.58 1027.35 1027.72
1019.17 1020.17 1020.38 1020.29 1020.57 1021.19 1021.78 1021.90 1021.95 1022.04 1021.85 1021.73 1022.09 1022.69 1022.98 1023.06 1022.29 1022.02 1022.36 1023.00 1023.26 1023.17 1023.21 1022.90 1022.77 1022.77 1022.79 1023.09 1023.30 1023.68 1024.07 1024.52 1025.06 1025.38 1025.42 1025.67 1026.21 1026.64 1027.14 1027.35 1027.16 1026.92 1026.68 1026.78 1026.83 1026.95 1027.11 1027.27 1027.40 1027.52 1027.62 1027.70 1027.80 1027.91
1021.21 1021.35 1021.65 1021.72 1021.57 1021.67 1021.95 1022.33 1022.49 1022.42 1022.24 1022.19 1022.42 1022.62 1022.54 1022.46 1022.58 1022.87 1023.15 1023.45 1023.74 1023.75 1023.56 1023.30 1023.19 1023.23 1023.38 1023.68 1023.93 1024.39 1025.05 1025.52 1025.75 1025.77 1025.91 1026.41 1026.66 1026.80 1026.94 1026.98 1026.91 1026.72 1026.72 1026.76 1026.78 1026.83 1026.94 1027.10 1027.24 1027.39 1027.56 1027.71 1027.87 1027.91
1022.56 1022.69 1022.61 1022.66 1022.60 1022.70 1023.33 1023.66 1023.63 1023.73 1023.83 1023.33 1022.99 1022.65 1022.60 1022.96 1023.49 1023.62 1023.62 1023.86 1023.95 1023.97 1023.97 1023.98 1024.23 1024.32 1024.49 1024.79 1025.10 1025.31 1025.41 1025.91 1026.42 1027.01 1027.13 1027.41 1027.59 1027.27 1026.88 1027.08 1027.15 1027.04 1026.81 1026.67 1026.40 1026.64 1026.70 1026.83 1026.84 1026.99 1027.36 1027.63 1027.84 1028.14
1023.92 1023.82 1023.78 1023.91 1024.16 1024.37 1024.86 1025.00 1024.87 1024.67 1024.33 1024.13 1023.95 1023.47 1023.26 1023.44 1023.88 1024.09 1024.07 1024.09 1024.14 1024.27 1024.45 1024.54 1024.86 1025.03 1025.39 1025.67 1026.01 1026.33 1026.42 1026.51 1027.03 1027.34 1027.51 1027.63 1027.66 1027.15 1027.14 1027.21 1027.28 1027.22 1027.11 1026.97 1026.87 1026.77 1026.61 1026.79 1026.93 1027.31 1027.67 1027.96 1028.27 1028.52
1024.93 1024.88 1025.15 1025.32 1025.52 1025.63 1025.62 1025.59 1025.35 1025.00 1024.67 1024.49 1024.34 1024.25 1024.00 1024.05 1024.23 1024.54 1024.69 1024.83 1024.90 1024.95 1025.05 1025.33 1025.63 1026.04 1026.35 1026.51 1026.60 1026.77 1026.79 1026.54 1026.67 1026.89 1026.89 1026.78 1026.79 1026.99 1027.15 1027.32 1027.47 1027.33 1027.29 1027.13 1027.10 1027.17 1027.28 1027.40 1027.61 1027.78 1027.98 1028.20 1028.41 1028.63
1026.09 1026.50 1026.67 1026.58 1026.40 1026.19 1026.08 1026.00 1025.68 1025.47 1025.30 1025.17 1025.20 1025.13 1024.84 1024.75 1024.89 1025.28 1025.66 1025.61 1025.63 1025.77 1025.78 1026.35 1026.74 1026.93 1026.89 1026.85 1026.83 1026.73 1026.35 1026.51 1026.70 1026.88 1026.81 1026.51 1026.52 1027.08 1027.22 1027.35 1027.61 1027.65 1027.29 1027.15 1027.19 1027.34 1027.57 1027.61 1027.70 1027.86 1028.05 1028.13 1028.21 1028.35
1027.50 1027.62 1027.75 1027.84 1027.56 1027.21 1027.00 1026.94 1026.63 1026.50 1026.27 1026.30 1026.43 1026.59 1026.51 1026.64 1026.44 1026.51 1026.51 1026.59 1026.87 1027.00 1027.04 1027.34 1027.24 1027.15 1027.11 1027.13 1027.01 1026.78 1026.69 1026.63 1026.37 1024.99 1024.98 1024.93 1025.05 1025.54 1026.45 1026.74 1027.10 1026.96 1026.78 1026.92 1027.17 1027.35 1027.49 1027.46 1027.48 1027.52 1027.67 1027.77 1027.81 1027.93
Wind_Speed
11 11 13 15 17 18 19 21 22 22 24 25 24 21 15 12 4 3 1 3 3 2 4 3 2 1 0 3 3 8 6 7 5 8 4 3 3 3 2 3 4 4 4 4 5 4 4 18 9 9 7 10 15 16
11 12 12 13 15 16 18 20 21 22 23 24 24 20 14 12 6 3 1 2 1 2 4 2 2 1 3 4 4 2 7 3 3 4 2 2 3 4 4 1 4 1 2 3 2 2 5 6 3 7 9 13 15 18
11 12 12 13 15 15 16 18 20 21 22 23 24 21 14 11 6 5 2 2 2 3 4 3 3 3 6 2 3 4 3 4 3 4 2 2 2 2 2 0 0 2 4 2 8 3 10 16 3 10 13 16 19 18
11 12 14 12 15 14 14 15 18 21 21 22 23 20 13 7 3 4 3 2 3 2 4 5 1 2 5 4 2 4 4 2 3 1 2 1 1 4 0 1 3 1 3 4 7 5 15 5 12 18 22 19 19 21
13 11 14 13 15 14 14 15 16 19 21 22 21 19 11 1 5 4 2 1 1 4 4 4 4 1 3 6 6 2 3 1 1 1 2 1 1 3 2 3 2 0 0 2 5 9 7 15 17 25 22 20 21 22
14 12 14 14 14 16 14 14 15 17 19 20 20 17 9 2 6 2 3 0 1 3 3 3 2 5 6 6 5 5 3 1 1 3 2 2 1 3 3 2 6 4 3 5 6 11 16 20 21 20 17 23 22 21
16 13 12 15 13 16 16 16 15 15 18 20 19 13 3 3 3 2 3 2 4 1 4 4 4 3 3 3 3 3 4 2 2 2 2 3 2 5 3 3 5 6 7 7 8 6 10 8 11 19 18 20 22 20
16 16 13 14 15 14 16 16 17 16 17 20 17 10 3 8 7 1 2 5 4 5 4 2 5 3 6 4 4 3 3 3 4 3 1 2 1 3 1 6 5 5 7 6 5 7 13 17 15 15 14 14 16 15
16 17 15 16 15 13 15 16 16 17 18 18 9 4 2 3 1 2 7 6 3 3 3 3 3 4 4 3 1 4 2 3 1 3 1 2 1 4 6 6 5 5 3 10 11 11 9 8 14 15 14 15 13 14
17 18 15 17 17 14 13 16 15 15 15 7 4 4 4 2 8 4 4 4 5 5 4 2 1 2 3 2 2 2 2 1 2 1 2 2 4 3 5 7 5 6 6 5 6 8 10 13 14 15 14 14 12 14
18 18 17 15 17 15 14 15 13 9 4 4 3 2 2 7 2 3 2 2 2 4 1 1 1 1 3 2 1 1 2 2 2 3 2 2 5 5 5 5 6 6 5 7 7 9 8 10 12 13 14 13 13 13
17 18 17 17 18 16 15 13 10 2 2 2 0 1 3 4 3 3 1 1 2 3 2 3 2 2 1 1 2 2 1 3 3 1 4 4 6 5 4 5 6 5 5 7 4 7 8 7 8 9 11 11 12 12
17 18 17 18 19 17 16 14 11 8 9 2 4 3 4 2 1 6 6 2 2 5 5 4 1 1 3 3 2 3 3 4 1 3 5 6 3 3 6 4 5 4 4 6 7 5 6 6 6 5 9 9 11 8
20 19 19 18 19 18 18 17 11 10 5 3 1 6 5 4 7 7 5 4 3 5 6 3 3 1 1 3 1 3 3 1 2 1 8 4 7 7 5 3 2 4 3 6 8 6 6 6 6 7 7 7 9 8
20 20 19 19 19 20 19 19 21 2 4 4 4 7 8 5 1 1 3 3 2 6 5 4 3 2 1 2 0 2 3 5 7 7 5 4 6 6 4 4 5 5 5 4 3 5 6 6 5 6 7 7 8 8
19 20 15 21 20 22 21 11 5 3 3 4 5 3 2 2 3 3 4 3 4 5 3 3 4 3 4 4 2 8 5 9 5 5 3 5 7 6 5 5 5 4 5 5 4 3 4 5 4 5 5 7 7 8
20 6 11 15 16 19 17 6 2 7 8 7 8 4 2 1 3 4 5 6 7 5 5 4 6 8 3 1 5 6 9 5 4 3 2 5 7 7 7 5 5 4 4 4 2 3 3 5 3 4 5 6 6 6
14 10 14 16 12 7 3 2 5 6 9 6 4 4 3 1 2 2 3 9 6 5 6 6 5 5 8 8 6 6 6 2 2 2 4 4 4 4 5 6 5 4 4 3 4 3 2 3 2 2 3 3 3 4
12 7 16 20 11 6 6 5 3 6 7 2 1 1 2 2 1 2 4 5 2 2 6 3 4 6 7 6 5 3 3 4 4 4 2 3 4 6 5 3 2 3 3 3 2 2 2 2 2 1 1 1 2 1
12 17 17 9 13 4 3 1 1 3 4 2 2 3 1 2 3 3 5 3 4 3 4 7 10 6 5 3 3 2 3 5 5 3 2 3 3 4 5 5 3 3 2 1 2 4 1 1 1 2 1 1 2 2
4 4 9 2 2 2 2 4 2 1 2 2 2 2 2 1 2 3 3 3 3 6 7 8 5 1 3 2 1 2 4 7 5 3 4 3 4 4 3 2 3 2 2 2 2 3 3 3 1 1 1 1 1 1
1 5 3 2 3 2 4 3 1 2 2 1 2 2 2 2 3 4 4 3 6 5 5 1 1 2 4 3 3 2 4 6 4 3 5 10 4 4 2 3 3 2 2 3 3 3 2 2 2 1 1 1 2 1
6 3 2 1 3 1 2 1 1 1 2 2 2 2 2 2 1 1 4 5 5 1 2 3 3 4 3 2 4 3 4 6 4 4 4 4 3 3 3 3 2 4 2 2 1 2 2 3 3 3 1 2 1 2
2 1 1 3 4 3 2 3 2 2 1 1 1 2 2 2 1 1 6 3 1 1 1 1 1 2 2 3 2 3 4 3 5 3 2 4 3 2 2 2 2 2 3 2 2 2 2 1 3 2 2 1 1 1
3 4 1 2 2 4 2 2 2 1 3 3 3 3 3 2 2 4 5 2 2 2 2 1 1 0 2 2 3 3 1 3 5 4 3 2 3 3 2 1 2 3 2 3 2 3 2 2 2 2 1 1 1 1
2 3 1 2 0 4 4 4 5 5 3 3 4 2 2 2 3 6 1 2 2 2 2 2 1 0 0 1 3 3 4 2 3 3 2 4 3 4 4 3 1 3 3 3 3 4 4 3 3 3 1 2 2 4
1 3 3 2 2 2 1 2 2 1 3 5 3 4 3 4 5 1 1 1 2 2 3 3 1 1 2 2 3 3 4 3 2 2 1 3 3 3 4 4 4 4 3 4 3 4 4 4 3 3 2 1 2 2
1 3 2 3 1 1 1 2 3 2 2 2 2 3 3 3 2 3 2 2 2 2 2 3 4 3 3 3 4 5 5 3 4 3 3 3 2 1 2 1 2 3 4 4 3 3 3 3 3 3 3 2 2 1
3 4 2 3 2 3 3 2 2 2 3 3 3 2 2 2 1 2 2 2 2 1 2 2 3 3 4 4 4 3 3 4 5 4 2 2 3 4 2 2 2 1 0 2 6 9 7 4 5 4 3 2 1 2
4 3 2 3 2 2 1 1 2 2 2 2 2 3 2 0 1 1 2 2 2 1 1 1 2 1 2 2 2 2 1 1 2 5 4 4 5 3 1 3 3 2 1 2 2 2 4 5 5 4 2 1 1 1
3 2 3 2 1 1 2 2 2 3 2 1 1 2 2 2 1 2 2 2 2 1 1 1 1 2 2 2 2 2 3 2 5 5 3 2 1 2 2 3 2 2 2 3 3 2 1 1 1 0 1 3 5 3
3 3 2 3 2 2 1 1 2 1 2 2 2 2 3 2 1 2 3 3 2 2 3 2 1 3 3 2 2 2 2 1 2 5 7 3 3 3 3 3 3 3 3 3 3 3 3 3 3 3 4 6 6 5
3 3 2 2 3 4 3 3 3 3 2 3 3 4 3 3 2 2 2 2 2 2 2 3 3 3 3 4 4 3 3 3 4 5 8 9 10 9 5 4 4 4 4 3 3 3 5 5 5 5 6 7 7 7
Wind_Direction
329 336 341 340 345 352 354 356 355 355 358 1 2 2 356 355 46 102 264 12 121 185 273 193 271 314 7 69 98 285 19 343 345 37 35 311 25 336 47 39 360 55 326 354 309 254 250 3 7 55 316 310 326 326
314 321 329 333 334 345 350 352 353 353 351 356 357 357 354 350 33 83 63 344 274 172 230 268 319 18 92 169 154 340 188 230 258 40 16 1 344 358 341 92 352 46 80 287 279 290 357 350 274 49 354 323 323 318
305 312 317 326 326 336 343 347 349 348 348 352 354 352 351 358 34 103 141 325 55 56 329 6 157 120 57 348 187 111 291 222 335 183 219 254 42 359 23 333 127 102 12 248 337 90 317 311 107 355 344 326 313 306
293 304 307 318 315 323 331 338 342 345 347 348 350 349 342 34 38 100 84 319 74 88 103 277 2 146 122 358 195 189 184 335 180 105 209 132 53 19 57 126 81 321 331 316 262 348 328 153 340 332 325 321 312 310
283 292 297 306 309 314 322 328 334 338 342 344 348 345 333 94 94 85 108 74 119 121 208 270 297 6 360 12 8 89 173 169 211 339 58 101 69 57 17 61 340 199 276 319 277 332 274 276 303 311 312 313 315 310
278 285 295 301 310 308 314 318 327 331 335 338 348 338 331 186 125 93 6 292 2 166 99 342 267 349 337 357 23 39 17 201 203 109 141 44 320 120 106 202 245 215 200 219 273 304 295 284 289 294 310 307 307 302
276 277 288 293 300 304 310 313 318 324 330 333 344 330 5 95 81 110 179 261 2 55 86 339 328 332 324 349 15 5 357 345 86 105 67 128 16 77 94 189 225 254 252 248 248 292 284 255 299 300 298 298 301 297
270 275 278 282 290 298 302 306 310 317 326 329 342 316 140 99 106 65 351 17 86 91 68 102 271 23 4 9 350 347 3 357 16 137 44 88 42 84 228 238 257 257 275 277 243 222 255 282 288 288 298 302 306 309
265 271 276 281 281 291 296 299 306 314 324 334 342 96 46 41 52 228 322 80 40 115 146 99 134 265 2 354 340 346 54 40 312 78 70 100 238 230 214 210 249 250 231 279 294 287 279 275 295 305 310 312 312 310
260 264 267 277 277 278 285 288 297 311 326 359 43 56 326 269 307 345 15 26 18 342 31 120 98 328 41 6 335 348 2 37 69 112 83 94 260 246 201 199 219 249 256 285 309 317 317 313 315 313 310 303 297 296
260 262 260 261 269 273 276 282 292 327 14 30 10 272 247 321 52 30 4 61 330 355 39 117 129 171 354 70 260 55 231 300 66 245 146 274 268 234 208 229 243 240 238 254 233 260 268 277 294 304 310 309 308 306
256 257 259 262 266 269 269 272 280 144 188 142 102 12 344 38 24 69 255 329 186 244 151 153 196 156 337 332 97 330 150 43 240 49 70 260 245 214 186 244 266 268 279 280 246 273 286 288 291 298 303 310 313 311
255 255 256 256 261 264 263 256 250 154 101 75 48 9 68 275 295 185 208 221 242 173 173 170 137 128 22 45 43 70 81 219 30 51 236 232 259 229 212 225 268 270 275 282 296 285 293 292 310 296 312 321 322 326
257 255 255 254 257 257 256 248 175 135 94 106 158 276 180 224 239 195 190 166 126 122 139 124 103 158 166 67 149 101 240 59 37 282 235 231 210 205 197 221 161 246 274 289 292 301 312 318 315 324 329 337 341 348
255 260 258 255 254 253 246 246 166 101 135 172 132 233 219 236 258 108 102 121 101 124 121 106 81 93 61 99 175 70 5 252 207 226 221 203 184 172 200 197 216 255 271 264 262 303 310 319 326 330 341 350 2 5
259 266 251 249 246 243 242 202 97 120 115 154 205 261 205 43 237 204 187 146 155 130 93 66 114 82 237 157 128 217 145 229 235 212 208 146 168 181 196 203 215 225 227 247 273 260 294 324 332 331 343 2 17 21
256 238 221 232 237 236 200 113 138 185 191 194 235 221 212 319 223 164 155 154 154 142 156 146 182 214 113 121 250 197 211 218 205 201 180 171 175 187 176 200 218 211 223 239 248 290 280 296 335 6 18 0 16 34
246 252 242 236 227 79 51 155 188 184 223 219 212 188 191 22 110 123 103 144 145 166 144 194 122 184 206 200 223 221 218 207 201 177 170 171 158 166 171 185 213 205 212 226 220 252 297 5 13 2 350 5 12 32
249 257 264 258 195 139 163 194 182 212 221 152 257 167 101 98 50 62 127 144 61 92 119 156 208 217 225 215 201 167 163 189 179 181 195 222 171 175 175 177 212 210 200 205 200 209 211 225 266 324 343 10 34 21
288 273 263 269 145 133 166 178 282 216 203 198 138 170 136 105 98 121 136 141 141 162 180 212 221 214 201 200 191 137 145 140 129 133 202 207 188 167 186 176 197 188 182 217 234 201 169 312 325 325 249 170 85 42
292 20 6 155 80 86 103 146 172 245 138 182 108 133 97 111 136 168 160 153 200 214 230 227 231 158 96 84 86 104 133 154 174 165 172 163 172 177 154 175 180 171 163 196 198 252 209 176 192 349 17 76 56 50
145 101 95 72 99 72 80 11 56 94 111 82 139 156 149 180 189 190 132 199 238 233 224 260 261 163 164 181 170 168 140 125 121 141 125 128 131 159 173 173 144 185 196 214 185 178 177 180 160 117 86 13 62 68
85 64 65 125 104 125 103 344 178 128 212 184 147 196 209 188 116 126 240 227 257 255 351 11 34 20 73 82 108 95 124 134 138 138 126 115 114 122 119 132 142 145 178 271 195 162 164 200 227 121 58 64 56 44
56 64 59 51 16 111 36 40 40 82 94 211 205 274 149 91 123 235 260 256 264 347 332 306 135 76 53 117 157 151 155 132 113 108 125 137 142 171 155 163 179 205 191 190 160 138 136 84 116 89 84 90 90 102
86 277 158 80 41 95 90 41 329 253 253 175 198 209 163 161 211 234 242 283 320 337 339 337 315 315 135 116 122 114 115 147 153 152 165 145 108 103 111 115 252 235 177 128 161 147 129 117 107 115 111 127 152 155
206 323 133 171 160 128 172 171 203 211 207 228 227 112 179 196 245 247 229 298 306 305 315 241 200 173 139 104 140 161 175 143 118 112 162 175 169 141 166 159 180 285 199 171 143 147 154 157 153 147 142 334 27 115
273 310 343 24 74 97 35 9 1 220 221 216 174 163 169 228 242 278 25 44 310 345 290 281 180 180 164 128 95 81 104 107 106 141 60 132 144 158 145 159 194 235 164 156 147 151 161 168 169 183 185 191 202 209
126 26 35 314 322 211 235 204 209 232 334 27 104 198 223 240 332 2 358 18 329 320 342 14 22 32 75 79 101 113 89 89 92 79 68 57 64 183 200 248 261 196 160 155 153 141 150 169 186 200 205 215 228 248
39 344 321 320 307 62 61 3 3 31 347 306 293 298 340 31 349 330 353 340 299 305 15 38 40 48 68 67 58 37 117 140 102 86 112 271 330 290 185 203 264 306 270 236 194 178 200 196 206 192 199 201 152 131
343 337 345 33 33 43 9 338 299 314 280 280 280 273 225 130 22 321 310 325 332 30 30 69 101 53 123 111 102 46 340 150 135 138 166 219 228 246 197 178 186 199 174 139 108 5 353 45 43 56 81 83 59 347
320 2 49 37 20 267 255 282 265 244 251 264 279 282 307 329 113 31 13 2 11 41 78 94 57 20 127 119 128 101 306 247 202 211 206 172 171 193 195 193 187 155 140 147 143 145 131 105 110 180 260 259 268 284
21 37 352 344 314 283 261 303 287 313 338 340 353 337 328 270 10 51 13 337 339 353 352 65 79 290 232 211 235 244 4 245 208 207 209 197 209 216 197 181 167 150 150 164 167 161 174 194 216 226 245 264 269 262
26 6 348 327 330 359 355 345 349 330 6 18 18 1 357 340 320 300 346 62 155 220 281 269 257 265 262 228 216 245 250 230 247 212 210 212 215 213 201 190 176 181 177 174 176 185 218 225 241 241 250 252 256 255